[[{"header":{"parameterUnit":"m.s-1","parameterCategory":2,"la1":30.2991,"la2":30.254,"lo1":-89.0895,"lo2":-89.0444,"dy":0.0017,"dx":0.0017,"nx":28,"ny":28,"refTime":"2024-03-02T09:00:00:Z","depth":"0","parameterNumber":2,"parameterNumberName":"U-component_of_CURRENTS"},"data":[0,0,0,0,0,0,0,0,0,0,0,0,0,0,0,0,0,0,0,0,0,0,0,0,0,0,0,0,0,0,0,0,0,0,0,0,0,0,0,0,0,0,0,0,0,0,0,0,0,0,0,0,0,0,0,0,0,0,0.2785,0.2785,0,0.2798,0.2798,0.2798,0.279,0.279,0.279,0.279,0.2777,0.2776,0.2776,0,0,0,0,0,0,0,0,0,0,0,0,0,0.2749,0.2749,0.2785,0.2785,0.2785,0.2798,0.2798,0.2798,0.279,0.279,0.279,0.279,0.2777,0.2777,0.2776,0,0,0,0,0,0,0,0,0,0,0,0,0,0.2761,0.275,0.2784,0.2785,0.2786,0.2798,0.2798,0.2798,0.2791,0.279,0.279,0.279,0.2777,0.2777,0.2776,0.2778,0,0,0.2775,0.2775,0,0,0,0,0,0,0,0,0.276,0.2762,0.2785,0.2785,0.2786,0.2795,0.2781,0.2791,0.2791,0.2786,0.279,0.279,0.2782,0.2781,0.2781,0.2777,0.2777,0.2775,0.2775,0.2775,0.2775,0,0,0,0,0,0,0,0.2759,0.2761,0.2787,0.2785,0.2786,0.2784,0.2785,0.2783,0.2782,0.2786,0.2786,0.2792,0.2782,0.2781,0.278,0.2776,0.2775,0.2775,0.2775,0.2774,0.2816,0.2818,0,0,0,0,0,0,0.2764,0.2761,0.2787,0.2788,0.2775,0.2785,0.2786,0.279,0.2783,0.2783,0.2792,0.2792,0.2782,0.2781,0.278,0.2818,0.2775,0.2774,0.2774,0.2815,0.2817,0.2818,0,0,0,0,0,0,0.2763,0.2766,0.2786,0.2777,0.278,0.2786,0.279,0.279,0.2794,0.2788,0.2787,0.2797,0.2782,0.278,0.2792,0.2816,0.2774,0.2774,0.2814,0.2816,0.2818,0.287,0,0,0,0,0,0,0.2762,0.2765,0.2768,0.2777,0.278,0.2803,0.2791,0.2791,0.2799,0.2799,0.2792,0.279,0.2782,0.2792,0.2791,0.2815,0.2774,0.2812,0.2815,0.2817,0.2867,0.2874,0.288,0,0,0,0,0,0.276,0.2763,0.2768,0.2771,0.2784,0.2804,0.2806,0.2808,0.28,0.2809,0.2807,0.2791,0.2808,0.2793,0.2792,0.2815,0.2811,0.2814,0.2817,0.2864,0.2873,0.288,0,0,0,0,0,0,0.2742,0.2763,0.2769,0.2775,0.2795,0.2804,0.2811,0.2812,0.2817,0.2815,0.2803,0.2802,0.2825,0.2813,0.2797,0.2836,0.2808,0.2811,0.2845,0.2853,0.2859,0.288,0.2773,0,0,0,0,0,0.2743,0.2753,0.2774,0.2781,0.2793,0.2803,0.2811,0.2816,0.2822,0.2824,0.2821,0.2822,0.2836,0.2837,0.2843,0.2858,0.2881,0.2875,0.2881,0.2887,0.2904,0.2959,0.2972,0.2828,0.2828,0.2828,0,0,0.2736,0.2751,0.2754,0.2779,0.2792,0.2816,0.2807,0.2824,0.2843,0.2822,0.2841,0.2844,0.2846,0.287,0.2879,0.2862,0.2943,0.2891,0.2895,0.291,0.2964,0.2978,0.299,0.283,0.283,0.2829,0,0,0.2737,0.2745,0.276,0.2782,0.2812,0.2823,0.2832,0.285,0.2858,0.2879,0.2877,0.2899,0.2902,0.2919,0.2926,0.2971,0.2978,0.2969,0.3015,0.3068,0.3081,0.3092,0.3151,0.3167,0.2969,0.2969,0.2969,0,0.2731,0.2751,0.2768,0.2795,0.2812,0.283,0.2853,0.2871,0.2889,0.2906,0.2892,0.2935,0.2931,0.298,0.2999,0.2987,0.3021,0.2982,0.3078,0.3089,0.31,0.3157,0.3174,0.2972,0.2972,0.2971,0.2971,0,0.275,0.277,0.2782,0.2823,0.2844,0.2866,0.2899,0.2924,0.2933,0.2952,0.2999,0.3006,0.3036,0.3038,0.3032,0.3108,0.3109,0.3082,0.3058,0.3118,0.3174,0.3191,0.2976,0.2975,0.2974,0.2974,0,0,0.272,0.2783,0.2786,0.2814,0.2859,0.288,0.2923,0.2969,0.301,0.303,0.3086,0.3111,0.3124,0.3135,0.3137,0.3179,0.3282,0.3168,0.3169,0.3229,0.3418,0.3371,0.3385,0.3274,0.3277,0.3279,0.3431,0,0.2729,0.278,0.2806,0.2854,0.2883,0.292,0.2963,0.301,0.3046,0.3108,0.3137,0.3186,0.3159,0.3185,0.3229,0.3274,0.3328,0.3245,0.335,0.3354,0.3306,0.3403,0.3281,0.3402,0.3447,0.345,0.3452,0,0.273,0.2769,0.2813,0.2883,0.2899,0.2934,0.3009,0.3054,0.3144,0.3175,0.3234,0.3263,0.3345,0.3305,0.3426,0.3377,0.3411,0.3435,0.3441,0.3392,0.3338,0.3348,0.343,0.3357,0.3478,0.3476,0.3474,0,0.2696,0.2767,0.2801,0.2824,0.2908,0.2941,0.299,0.3073,0.3114,0.3229,0.3277,0.3367,0.3425,0.3486,0.3539,0.3498,0.3672,0.3613,0.3606,0.3603,0.3518,0.3501,0.3541,0.3706,0.3705,0.3705,0.3704,0,0.2684,0.2715,0.2795,0.2818,0.2869,0.2937,0.2999,0.3066,0.3163,0.3224,0.3314,0.3386,0.3474,0.357,0.3601,0.3674,0.3726,0.365,0.365,0.3532,0.3516,0.3459,0.3411,0.3711,0.3709,0.3708,0.3707,0,0.2639,0.269,0.2737,0.2827,0.2852,0.2893,0.2982,0.3033,0.314,0.3231,0.3271,0.3427,0.3564,0.3647,0.377,0.3751,0.3722,0.3825,0.3686,0.3666,0.3545,0.3504,0.3428,0.3322,0.3844,0.3844,0.3844,0,0.2619,0.264,0.2721,0.2743,0.2783,0.2847,0.2887,0.2998,0.305,0.3244,0.3287,0.3467,0.3569,0.3756,0.3787,0.3866,0.374,0.3767,0.3648,0.3557,0.3512,0.3361,0.3264,0.3569,0.3567,0.3565,0.3563,0,0.2577,0.2605,0.264,0.2689,0.2731,0.2768,0.2842,0.2876,0.3018,0.3108,0.3251,0.3362,0.3574,0.3619,0.3738,0.3755,0.3583,0.3727,0.3673,0.3346,0.3145,0.3035,0.346,0.3546,0.3548,0.3549,0.355,0.3551,0.2528,0.2542,0.2587,0.2619,0.2658,0.2681,0.2673,0.2765,0.2835,0.2942,0.3127,0.3246,0.3419,0.3577,0.3581,0.3525,0.3478,0.3415,0.3393,0.3265,0.3085,0.3478,0.3526,0.3527,0.3528,0.3529,0.3531,0,0.2466,0.2488,0.2515,0.2537,0.2525,0.2583,0.2623,0.2596,0.263,0.2788,0.2888,0.3079,0.3167,0.329,0.3347,0.3227,0.3053,0.313,0.2899,0.2834,0.3241,0.3152,0.307,0.307,0.307,0.307,0.3071,0.3071,0.2436,0.2432,0.2444,0.2392,0.2397,0.2344,0.2335,0.2328,0.2396,0.2482,0.2589,0.2735,0.3028,0.3172,0.3125,0.3034,0.2782,0.2646,0.2627,0.2939,0.2963,0.2985,0.2891,0.2757,0.2756,0.2098,0.2094,0.209]},{"header":{"parameterUnit":"m.s-1","parameterCategory":2,"la1":30.2991,"la2":30.254,"lo1":-89.0895,"lo2":-89.0444,"dy":0.0017,"dx":0.0017,"nx":28,"ny":28,"refTime":"2024-03-02T09:00:00:Z","depth":"0","parameterNumber":3,"parameterNumberName":"V-component_of_CURRENTS"},"data":[0,0,0,0,0,0,0,0,0,0,0,0,0,0,0,0,0,0,0,0,0,0,0,0,0,0,0,0,0,0,0,0,0,0,0,0,0,0,0,0,0,0,0,0,0,0,0,0,0,0,0,0,0,0,0,0,0,0,-0.0051,-0.0051,0,-0.0125,-0.0126,-0.0127,-0.0181,-0.0181,-0.0181,-0.0182,-0.029,-0.0292,-0.0295,0,0,0,0,0,0,0,0,0,0,0,0,0,0.0001,0.0001,-0.0051,-0.0051,-0.0052,-0.0125,-0.0126,-0.0127,-0.018,-0.0181,-0.0181,-0.0182,-0.0289,-0.0292,-0.0295,0,0,0,0,0,0,0,0,0,0,0,0,0,-0.0043,0.0001,-0.005,-0.0087,-0.0091,-0.0125,-0.0126,-0.0127,-0.018,-0.0181,-0.0181,-0.0182,-0.0288,-0.0292,-0.0295,-0.0309,0,0,-0.0307,-0.0309,0,0,0,0,0,0,0,0,-0.004,-0.0045,-0.0081,-0.0084,-0.0089,-0.0143,-0.0147,-0.0189,-0.018,-0.0147,-0.0182,-0.0182,-0.0243,-0.025,-0.0264,-0.0314,-0.0318,-0.0308,-0.031,-0.0311,-0.0313,0,0,0,0,0,0,0,-0.0037,-0.0042,-0.0081,-0.0081,-0.0086,-0.0115,-0.0121,-0.0156,-0.0193,-0.015,-0.0154,-0.0161,-0.0245,-0.026,-0.0267,-0.032,-0.0307,-0.0311,-0.0313,-0.0315,-0.0395,-0.0394,0,0,0,0,0,0,-0.0023,-0.0039,-0.0079,-0.0083,-0.0064,-0.0115,-0.0122,-0.0126,-0.0192,-0.0202,-0.016,-0.0163,-0.0254,-0.0263,-0.0271,-0.0289,-0.0311,-0.0315,-0.0317,-0.0395,-0.0395,-0.0394,0,0,0,0,0,0,-0.0022,-0.0026,-0.0076,-0.0062,-0.0071,-0.0115,-0.0119,-0.0127,-0.0141,-0.0199,-0.021,-0.0165,-0.0254,-0.0266,-0.03,-0.0294,-0.0317,-0.032,-0.0395,-0.0395,-0.0395,-0.0327,0,0,0,0,0,0,-0.002,-0.0025,-0.002,-0.0061,-0.0071,-0.0087,-0.0119,-0.0128,-0.0143,-0.0148,-0.0206,-0.0217,-0.0256,-0.0294,-0.0304,-0.03,-0.0323,-0.0395,-0.0395,-0.0395,-0.0329,-0.0324,-0.032,0,0,0,0,0,-0.0017,-0.0006,-0.0019,-0.0024,-0.0064,-0.0086,-0.0094,-0.0128,-0.0143,-0.0143,-0.0185,-0.0215,-0.0299,-0.0297,-0.0308,-0.0305,-0.0395,-0.0395,-0.0395,-0.0331,-0.0325,-0.032,0,0,0,0,0,0,0.0022,-0.0012,-0.0027,-0.0026,-0.0051,-0.0095,-0.0096,-0.0121,-0.0154,-0.0158,-0.0214,-0.0227,-0.0255,-0.0289,-0.0285,-0.0328,-0.0351,-0.0353,-0.0299,-0.0294,-0.0289,-0.0265,-0.0326,0,0,0,0,0,0.0033,0.0031,-0.0006,-0.0003,-0.0012,-0.0053,-0.0065,-0.0088,-0.0123,-0.0138,-0.018,-0.0224,-0.0263,-0.0284,-0.0321,-0.0344,-0.0369,-0.035,-0.0345,-0.0341,-0.0329,-0.0376,-0.0374,-0.0393,-0.0393,-0.0393,0,0,0.0049,0.0032,0.0029,0.0005,-0.0016,-0.0021,-0.0061,-0.0073,-0.0078,-0.0145,-0.0162,-0.0208,-0.0265,-0.0291,-0.0307,-0.0319,-0.0344,-0.034,-0.0336,-0.0327,-0.0376,-0.0374,-0.0372,-0.0393,-0.0393,-0.0393,0,0,0.0083,0.0066,0.0075,0.0059,0.0035,0.0009,0.001,-0.003,-0.0049,-0.0073,-0.0123,-0.0164,-0.0217,-0.0261,-0.0289,-0.0281,-0.0318,-0.0292,-0.025,-0.0296,-0.0294,-0.0294,-0.03,-0.0301,-0.029,-0.029,-0.029,0,0.0104,0.0109,0.0075,0.0082,0.0076,0.0028,0.0039,0.0013,-0.0033,-0.0044,-0.0067,-0.0151,-0.0203,-0.0242,-0.0242,-0.0271,-0.0287,-0.0265,-0.0289,-0.0289,-0.0289,-0.0297,-0.0298,-0.0286,-0.0287,-0.0287,-0.0287,0,0.0142,0.0147,0.0154,0.0144,0.0134,0.0137,0.0099,0.0088,0.0058,0.0026,-0.0012,-0.0086,-0.0135,-0.0162,-0.0202,-0.0229,-0.0235,-0.0276,-0.0299,-0.0283,-0.0292,-0.0294,-0.0282,-0.0283,-0.0284,-0.0285,0,0,0.0187,0.0181,0.0184,0.0193,0.0169,0.0166,0.0162,0.0142,0.0147,0.0088,0.0084,-0.0001,-0.0042,-0.0076,-0.0136,-0.0181,-0.02,-0.022,-0.0224,-0.0218,-0.0268,-0.0253,-0.0254,-0.0245,-0.0246,-0.0246,-0.0265,0,0.0228,0.0257,0.024,0.0267,0.0279,0.0244,0.025,0.0225,0.0194,0.0178,0.0094,0.0065,-0.0009,-0.0028,-0.0086,-0.0169,-0.0207,-0.0189,-0.0292,-0.0294,-0.0277,-0.0258,-0.0236,-0.025,-0.0267,-0.0268,-0.0268,0,0.0271,0.0284,0.0322,0.0335,0.0338,0.0351,0.0355,0.0351,0.0312,0.0285,0.0232,0.0174,0.0106,0.0037,-0.0089,-0.0071,-0.0159,-0.0228,-0.0232,-0.0243,-0.0284,-0.0275,-0.0254,-0.0422,-0.0273,-0.0272,-0.0272,0,0.0322,0.0342,0.0377,0.038,0.0388,0.0406,0.0408,0.0389,0.0407,0.0355,0.0363,0.0261,0.0235,0.01,-0.0031,-0.0063,-0.0156,-0.0227,-0.0294,-0.0293,-0.0307,-0.0306,-0.0455,-0.0321,-0.0321,-0.0321,-0.0321,0,0.0371,0.0399,0.0408,0.0429,0.0485,0.0465,0.0519,0.05,0.0503,0.0553,0.0426,0.0454,0.0249,0.0176,0.0019,-0.0115,-0.0119,-0.0271,-0.03,-0.028,-0.0276,-0.045,-0.0548,-0.0322,-0.0321,-0.0321,-0.0321,0,0.0425,0.0427,0.0472,0.0496,0.0514,0.0552,0.0606,0.0646,0.0626,0.0689,0.0685,0.061,0.0518,0.0326,0.0136,-0.0021,-0.0263,-0.0228,-0.0165,-0.0187,-0.0429,-0.0523,-0.0688,-0.075,-0.0318,-0.0317,-0.0317,0,0.0454,0.0485,0.0533,0.0574,0.0592,0.0649,0.0704,0.0708,0.0766,0.0812,0.0862,0.0797,0.0789,0.0517,0.0224,-0.0036,-0.0221,-0.0201,-0.0283,-0.0424,-0.0552,-0.0628,-0.0674,-0.0268,-0.0267,-0.0267,-0.0266,0,0.0515,0.0534,0.0574,0.0663,0.0728,0.0803,0.0883,0.0954,0.0995,0.1064,0.1167,0.1172,0.0918,0.0677,0.0303,0.0102,-0.0312,-0.0199,-0.0381,-0.0545,-0.0604,-0.0681,-0.0251,-0.0262,-0.0262,-0.0263,-0.0263,-0.0263,0.0568,0.0613,0.0677,0.0762,0.0842,0.0961,0.1044,0.1154,0.1291,0.1423,0.1417,0.145,0.1065,0.0559,0.0273,-0.0263,-0.0288,-0.0444,-0.0547,-0.0611,-0.0678,-0.021,-0.0237,-0.0238,-0.0238,-0.0238,-0.0238,0,0.0638,0.0691,0.0773,0.0881,0.0984,0.1012,0.1172,0.1276,0.1469,0.1596,0.1692,0.1528,0.1057,0.0546,-0.0167,-0.0545,-0.0698,-0.0757,-0.0886,-0.092,-0.0534,-0.0538,-0.0589,-0.0588,-0.0588,-0.0588,-0.0588,-0.0588,0.068,0.0771,0.0812,0.0988,0.1069,0.1224,0.1323,0.1488,0.1611,0.1786,0.1817,0.1799,0.1409,0.0155,-0.0718,-0.0924,-0.1178,-0.1232,-0.1365,-0.1137,-0.1116,-0.1097,-0.1126,-0.1299,-0.13,-0.1698,-0.1702,-0.1705]}],[{"header":{"parameterUnit":"m.s-1","parameterCategory":2,"la1":30.2991,"la2":30.254,"lo1":-89.0895,"lo2":-89.0444,"dy":0.0017,"dx":0.0017,"nx":28,"ny":28,"refTime":"2024-03-02T09:00:00:Z","depth":"2","parameterNumber":2,"parameterNumberName":"U-component_of_CURRENTS"},"data":[0,0,0,0,0,0,0,0,0,0,0,0,0,0,0,0,0,0,0,0,0,0,0,0,0,0,0,0,0,0,0,0,0,0,0,0,0,0,0,0,0,0,0,0,0,0,0,0,0,0,0,0,0,0,0,0,0,0,0.2382,0.2382,0,0.2407,0.2407,0.2407,0.241,0.241,0.241,0.241,0.2424,0.2424,0.2425,0,0,0,0,0,0,0,0,0,0,0,0,0,0.2338,0.2339,0.2382,0.2382,0.2383,0.2407,0.2407,0.2407,0.241,0.241,0.241,0.241,0.2424,0.2424,0.2425,0,0,0,0,0,0,0,0,0,0,0,0,0,0.2357,0.2339,0.2382,0.2389,0.239,0.2407,0.2407,0.2407,0.241,0.241,0.241,0.241,0.2424,0.2424,0.2425,0.243,0,0,0.2427,0.2427,0,0,0,0,0,0,0,0,0.2356,0.2359,0.2387,0.2388,0.239,0.2407,0.2397,0.2415,0.241,0.24,0.241,0.241,0.2419,0.242,0.2422,0.2431,0.2432,0.2427,0.2427,0.2427,0.2428,0,0,0,0,0,0,0,0.2355,0.2358,0.239,0.2388,0.2389,0.2392,0.2394,0.2401,0.2407,0.2401,0.2402,0.2408,0.2419,0.2421,0.2422,0.2432,0.2427,0.2427,0.2428,0.2428,0.2494,0.2495,0,0,0,0,0,0,0.2357,0.2356,0.2389,0.2391,0.2375,0.2393,0.2395,0.24,0.2408,0.241,0.2408,0.2408,0.242,0.2421,0.2423,0.2468,0.2427,0.2428,0.2428,0.2492,0.2494,0.2495,0,0,0,0,0,0,0.2355,0.2359,0.2388,0.2376,0.238,0.2394,0.2399,0.24,0.2413,0.2414,0.2415,0.2421,0.242,0.2422,0.2444,0.2467,0.2428,0.2429,0.2491,0.2493,0.2495,0.2535,0,0,0,0,0,0,0.2354,0.2358,0.2365,0.2376,0.2381,0.2407,0.2399,0.2401,0.2418,0.2418,0.2425,0.2426,0.242,0.2443,0.2444,0.2468,0.2429,0.2489,0.2492,0.2494,0.2532,0.2538,0.2544,0,0,0,0,0,0.2352,0.236,0.2365,0.237,0.2389,0.2408,0.2411,0.2418,0.2419,0.2429,0.2437,0.2426,0.246,0.2444,0.2446,0.247,0.2488,0.2491,0.2494,0.2529,0.2537,0.2544,0,0,0,0,0,0,0.2341,0.2361,0.2368,0.238,0.2399,0.241,0.2421,0.2427,0.2441,0.2444,0.244,0.2442,0.2472,0.2467,0.245,0.2498,0.2474,0.2477,0.25,0.2507,0.2513,0.2523,0.243,0,0,0,0,0,0.2343,0.2355,0.2376,0.2387,0.2399,0.2413,0.2423,0.2431,0.2444,0.245,0.2456,0.2467,0.2484,0.2492,0.2504,0.2526,0.2542,0.2545,0.2551,0.2556,0.2566,0.2614,0.2625,0.2505,0.2505,0.2505,0,0,0.234,0.2355,0.2361,0.2386,0.24,0.2422,0.2419,0.2441,0.2461,0.245,0.2478,0.2488,0.2496,0.2525,0.2538,0.2524,0.2599,0.256,0.2563,0.2571,0.2618,0.263,0.264,0.2508,0.2507,0.2507,0,0,0.2342,0.2357,0.2371,0.239,0.242,0.2433,0.2444,0.2467,0.2481,0.2509,0.2512,0.254,0.2555,0.2572,0.2581,0.2627,0.2629,0.263,0.2665,0.2711,0.2721,0.2731,0.2767,0.2779,0.2631,0.2631,0.2631,0,0.2338,0.2359,0.2377,0.2399,0.242,0.2442,0.2465,0.2484,0.2511,0.2533,0.2524,0.2577,0.2581,0.2627,0.2644,0.2641,0.2664,0.2634,0.2719,0.2728,0.2737,0.2772,0.2785,0.2633,0.2633,0.2632,0.2632,0,0.2351,0.2373,0.2385,0.2421,0.2445,0.247,0.2503,0.2532,0.2552,0.2573,0.2625,0.2637,0.2672,0.2677,0.2673,0.274,0.2736,0.2722,0.27,0.2752,0.2785,0.2798,0.2636,0.2635,0.2635,0.2634,0,0,0.2327,0.2383,0.2387,0.241,0.2462,0.2479,0.2528,0.2577,0.2616,0.2644,0.2697,0.2728,0.2744,0.2757,0.2761,0.2796,0.2875,0.2788,0.279,0.2822,0.298,0.2953,0.2964,0.2878,0.2881,0.2882,0.2979,0,0.2333,0.2372,0.2403,0.2445,0.2471,0.2516,0.2556,0.2605,0.2652,0.2709,0.2742,0.2792,0.2772,0.28,0.2834,0.287,0.2911,0.285,0.2928,0.293,0.2898,0.2979,0.2737,0.2801,0.2991,0.2994,0.2995,0,0.2334,0.2364,0.2402,0.2464,0.2481,0.251,0.2591,0.2635,0.2723,0.2763,0.2826,0.2856,0.2926,0.2896,0.2987,0.2952,0.2976,0.2992,0.2996,0.2967,0.2927,0.278,0.2817,0.3016,0.3014,0.3013,0.3011,0,0.2302,0.2361,0.2391,0.2411,0.2484,0.2516,0.2565,0.2652,0.2703,0.2814,0.2866,0.2941,0.2993,0.3038,0.3079,0.3046,0.3174,0.3129,0.3126,0.3124,0.2931,0.2908,0.3201,0.3201,0.32,0.32,0.32,0,0.2291,0.2315,0.2378,0.2393,0.2439,0.2502,0.257,0.2636,0.2738,0.2805,0.2894,0.2961,0.3034,0.3109,0.3126,0.3179,0.3218,0.3158,0.3159,0.2939,0.2917,0.3106,0.3094,0.3204,0.3203,0.3202,0.3202,0,0.2244,0.2287,0.2319,0.2393,0.2423,0.2455,0.2564,0.2611,0.2725,0.2822,0.2864,0.3002,0.311,0.3174,0.3264,0.3242,0.329,0.3294,0.3033,0.3002,0.3192,0.3181,0.3301,0.3302,0.3302,0.3302,0.3302,0,0.2222,0.2234,0.2301,0.2324,0.2358,0.2425,0.247,0.2589,0.2644,0.2835,0.2868,0.303,0.3109,0.3247,0.3262,0.331,0.3335,0.3095,0.2986,0.322,0.3209,0.3197,0.3186,0.2743,0.2738,0.2734,0.2731,0,0.2179,0.2197,0.2225,0.227,0.2312,0.236,0.2438,0.2472,0.2614,0.2709,0.2838,0.2931,0.3091,0.3049,0.3134,0.3116,0.3068,0.3023,0.3349,0.2763,0.2703,0.2689,0.2694,0.2698,0.2702,0.2704,0.2706,0.2707,0.214,0.214,0.2175,0.2206,0.2248,0.227,0.2282,0.2363,0.2437,0.2535,0.2698,0.2762,0.2837,0.2857,0.2804,0.2771,0.2968,0.2813,0.2819,0.2831,0.2758,0.2702,0.2683,0.2686,0.2689,0.2691,0.2693,0,0.2076,0.2091,0.2118,0.2136,0.2127,0.2196,0.2234,0.2216,0.2248,0.238,0.2471,0.2349,0.2361,0.2435,0.235,0.2378,0.2302,0.2268,0.2133,0.2171,0.2203,0.2091,0.1843,0.184,0.1837,0.1834,0,0,0.2049,0.2038,0.2042,0.2002,0.2024,0.1991,0.1989,0.198,0.2032,0.2037,0.2066,0.2258,0.2384,0.2078,0.2061,0.1936,0.2025,0.1863,0.2556,0.2437,0.2464,0.2544,0.2419,0,0,0,0,0]},{"header":{"parameterUnit":"m.s-1","parameterCategory":2,"la1":30.2991,"la2":30.254,"lo1":-89.0895,"lo2":-89.0444,"dy":0.0017,"dx":0.0017,"nx":28,"ny":28,"refTime":"2024-03-02T09:00:00:Z","depth":"2","parameterNumber":3,"parameterNumberName":"V-component_of_CURRENTS"},"data":[0,0,0,0,0,0,0,0,0,0,0,0,0,0,0,0,0,0,0,0,0,0,0,0,0,0,0,0,0,0,0,0,0,0,0,0,0,0,0,0,0,0,0,0,0,0,0,0,0,0,0,0,0,0,0,0,0,0,0.002,0.002,0,-0.0042,-0.0042,-0.0043,-0.0083,-0.0083,-0.0083,-0.0083,-0.017,-0.0172,-0.0174,0,0,0,0,0,0,0,0,0,0,0,0,0,0.006,0.006,0.002,0.002,0.0019,-0.0041,-0.0042,-0.0043,-0.0083,-0.0083,-0.0083,-0.0083,-0.0169,-0.0172,-0.0174,0,0,0,0,0,0,0,0,0,0,0,0,0,0.0024,0.006,0.002,-0.0007,-0.001,-0.0041,-0.0042,-0.0044,-0.0083,-0.0083,-0.0083,-0.0084,-0.0168,-0.0171,-0.0174,-0.019,0,0,-0.0184,-0.0186,0,0,0,0,0,0,0,0,0.0027,0.0023,-0.0003,-0.0006,-0.0009,-0.0054,-0.006,-0.0093,-0.0083,-0.0056,-0.0083,-0.0084,-0.0132,-0.0139,-0.0151,-0.0194,-0.0198,-0.0185,-0.0187,-0.0188,-0.0189,0,0,0,0,0,0,0,0.0029,0.0025,-0.0005,-0.0003,-0.0007,-0.0032,-0.0037,-0.0067,-0.0094,-0.0059,-0.0062,-0.0067,-0.0135,-0.0148,-0.0153,-0.0199,-0.0185,-0.0187,-0.0189,-0.0191,-0.0255,-0.0255,0,0,0,0,0,0,0.0041,0.0028,-0.0003,-0.0007,0.001,-0.0032,-0.0038,-0.004,-0.0093,-0.0101,-0.0066,-0.0068,-0.0142,-0.0149,-0.0156,-0.0163,-0.0188,-0.0191,-0.0193,-0.0256,-0.0255,-0.0255,0,0,0,0,0,0,0.0043,0.0039,-0.0001,0.0009,0.0003,-0.0032,-0.0035,-0.0041,-0.0053,-0.0098,-0.0107,-0.0071,-0.0142,-0.0152,-0.0179,-0.0167,-0.0192,-0.0195,-0.0256,-0.0255,-0.0255,-0.0186,0,0,0,0,0,0,0.0044,0.004,0.0043,0.0011,0.0003,-0.0012,-0.0035,-0.0042,-0.0055,-0.0058,-0.0105,-0.0113,-0.0143,-0.0173,-0.0182,-0.0172,-0.0198,-0.0256,-0.0256,-0.0255,-0.0189,-0.0184,-0.0179,0,0,0,0,0,0.0046,0.0052,0.0043,0.0039,0.0007,-0.0011,-0.0018,-0.0044,-0.0055,-0.0056,-0.0088,-0.0112,-0.0177,-0.0176,-0.0186,-0.0177,-0.0256,-0.0256,-0.0255,-0.0191,-0.0185,-0.0179,0,0,0,0,0,0,0.007,0.0048,0.0037,0.0037,0.0017,-0.0018,-0.0021,-0.0039,-0.0066,-0.0067,-0.0111,-0.0122,-0.0141,-0.017,-0.0168,-0.0195,-0.022,-0.0221,-0.0167,-0.0162,-0.0157,-0.0138,-0.0201,0,0,0,0,0,0.0078,0.0078,0.0051,0.0051,0.0044,0.0013,0.0002,-0.0014,-0.0041,-0.0053,-0.0086,-0.012,-0.0147,-0.0162,-0.0193,-0.0208,-0.0237,-0.0209,-0.0204,-0.02,-0.0191,-0.0227,-0.0224,-0.0253,-0.0253,-0.0253,0,0,0.0087,0.0076,0.0075,0.0057,0.0039,0.0039,0.0006,-0.0004,-0.0004,-0.0058,-0.007,-0.0105,-0.0148,-0.0164,-0.0175,-0.0186,-0.0206,-0.0199,-0.0195,-0.0189,-0.0226,-0.0223,-0.0221,-0.0253,-0.0253,-0.0253,0,0,0.0111,0.0097,0.0107,0.0096,0.0079,0.0061,0.0062,0.0031,0.0018,0.0,-0.0036,-0.0063,-0.0108,-0.0133,-0.0153,-0.0141,-0.018,-0.015,-0.0109,-0.0144,-0.0142,-0.014,-0.0168,-0.017,-0.0147,-0.0147,-0.0146,0,0.0123,0.0134,0.0107,0.0116,0.0114,0.0076,0.0089,0.007,0.0035,0.0029,0.0007,-0.0053,-0.0092,-0.0107,-0.0104,-0.0128,-0.0153,-0.0125,-0.0137,-0.0136,-0.0135,-0.0165,-0.0167,-0.0143,-0.0144,-0.0144,-0.0144,0,0.0155,0.0165,0.0171,0.0172,0.0165,0.017,0.0144,0.0136,0.0113,0.0092,0.0068,0.0012,-0.0021,-0.0039,-0.0069,-0.008,-0.01,-0.0126,-0.0147,-0.0128,-0.0161,-0.0164,-0.0138,-0.014,-0.0141,-0.0141,0,0,0.0184,0.0193,0.0196,0.0213,0.0198,0.0199,0.02,0.0192,0.0203,0.0155,0.0159,0.0101,0.0069,0.0045,0.0001,-0.003,-0.0052,-0.007,-0.0073,-0.009,-0.0124,-0.0136,-0.0142,-0.008,-0.008,-0.008,-0.0146,0,0.022,0.0257,0.0246,0.0282,0.0301,0.0273,0.0282,0.0269,0.0247,0.024,0.0179,0.0162,0.0101,0.009,0.0048,-0.0024,-0.006,-0.0032,-0.0147,-0.015,-0.0158,-0.0146,-0.0114,-0.017,-0.015,-0.0151,-0.0152,0,0.0258,0.028,0.0321,0.0351,0.0356,0.0368,0.0381,0.0387,0.0363,0.0345,0.031,0.0259,0.0208,0.0152,0.0038,0.0059,-0.0024,-0.0087,-0.0091,-0.0128,-0.017,-0.0189,-0.0178,-0.0158,-0.0158,-0.0157,-0.0157,0,0.03,0.0335,0.0373,0.0381,0.0402,0.0415,0.0427,0.0419,0.0442,0.0415,0.0419,0.0341,0.0313,0.0198,0.0062,0.005,-0.0064,-0.0102,-0.0193,-0.0195,-0.0202,-0.0204,-0.0185,-0.0185,-0.0185,-0.0184,-0.0184,0,0.0345,0.0379,0.0398,0.0421,0.0478,0.047,0.0524,0.0522,0.0532,0.0575,0.0481,0.0487,0.0323,0.0233,0.0095,-0.0052,-0.0044,-0.018,-0.0211,-0.0178,-0.0176,-0.0197,-0.0197,-0.0187,-0.0186,-0.0186,-0.0185,0,0.0387,0.0397,0.0448,0.0481,0.0501,0.0541,0.0601,0.0641,0.0635,0.0686,0.0682,0.0602,0.0489,0.0316,0.0138,0.0005,-0.0145,-0.0203,-0.0148,-0.0172,-0.0262,-0.0259,-0.0311,-0.0312,-0.0313,-0.0313,-0.0314,0,0.0411,0.0441,0.0499,0.0538,0.0555,0.0617,0.0667,0.0693,0.0742,0.0763,0.0793,0.0701,0.0653,0.038,0.0136,-0.0101,-0.014,-0.0236,-0.0262,-0.0249,-0.0275,-0.027,-0.0265,-0.0247,-0.0246,-0.0246,-0.0246,0,0.046,0.0475,0.0517,0.0599,0.0657,0.0736,0.0807,0.0862,0.0904,0.0943,0.0977,0.0941,0.0694,0.0459,0.0129,-0.003,-0.0197,-0.0244,-0.0245,-0.0216,-0.0193,-0.0217,-0.0213,-0.0246,-0.0246,-0.0246,-0.0246,-0.0246,0.0494,0.0531,0.0585,0.0664,0.0739,0.0835,0.0906,0.0985,0.1078,0.114,0.1114,0.1073,0.0806,0.0393,0.0102,-0.0199,-0.0189,-0.0298,-0.0297,-0.0295,-0.0272,-0.0252,-0.0312,-0.0312,-0.0312,-0.0313,-0.0313,0,0.0533,0.0575,0.0648,0.0739,0.0823,0.0863,0.0988,0.1055,0.1167,0.1234,0.1262,0.1027,0.076,0.045,0.0005,-0.0267,-0.0283,-0.0349,-0.0314,-0.0311,-0.0309,-0.0287,-0.0331,-0.0332,-0.0332,-0.0333,0,0,0.0553,0.062,0.0654,0.0788,0.0861,0.0982,0.1056,0.1154,0.1229,0.1289,0.1286,0.124,0.0871,0.0545,0.0177,-0.0082,-0.0133,-0.0127,-0.0081,0.0008,0.0012,-0.0245,-0.0203,0,0,0,0,0]}],[{"header":{"parameterUnit":"m.s-1","parameterCategory":2,"la1":30.2991,"la2":30.254,"lo1":-89.0895,"lo2":-89.0444,"dy":0.0017,"dx":0.0017,"nx":28,"ny":28,"refTime":"2024-03-02T09:00:00:Z","depth":"4","parameterNumber":2,"parameterNumberName":"U-component_of_CURRENTS"},"data":[0,0,0,0,0,0,0,0,0,0,0,0,0,0,0,0,0,0,0,0,0,0,0,0,0,0,0,0,0,0,0,0,0,0,0,0,0,0,0,0,0,0,0,0,0,0,0,0,0,0,0,0,0,0,0,0,0,0,0.1559,0.156,0,0.1618,0.1618,0.1619,0.1667,0.1668,0.1669,0.1669,0.1744,0.1746,0.1747,0,0,0,0,0,0,0,0,0,0,0,0,0,0.148,0.1481,0.1559,0.156,0.1561,0.1617,0.1618,0.1619,0.1667,0.1668,0.1669,0.167,0.1744,0.1746,0.1747,0,0,0,0,0,0,0,0,0,0,0,0,0,0.1522,0.1482,0.1559,0.1593,0.1597,0.1617,0.1618,0.1619,0.1667,0.1668,0.1669,0.167,0.1743,0.1745,0.1747,0.1738,0,0,0.1754,0.1754,0,0,0,0,0,0,0,0,0.152,0.1525,0.1587,0.1591,0.1595,0.1638,0.1618,0.166,0.1667,0.1638,0.1669,0.1671,0.1711,0.1716,0.1721,0.1742,0.1745,0.1754,0.1755,0.1756,0.1756,0,0,0,0,0,0,0,0.1517,0.1522,0.158,0.1588,0.1593,0.1603,0.161,0.1626,0.1667,0.1641,0.1645,0.1655,0.1713,0.1719,0.1723,0.1746,0.1754,0.1755,0.1757,0.1757,0.1869,0.1871,0,0,0,0,0,0,0.1513,0.152,0.1578,0.1582,0.1562,0.1604,0.1611,0.1622,0.1666,0.1675,0.1654,0.1657,0.1715,0.1721,0.1726,0.1809,0.1756,0.1758,0.1759,0.1867,0.1869,0.1871,0,0,0,0,0,0,0.1511,0.1518,0.1576,0.1554,0.1562,0.1604,0.1615,0.1622,0.1664,0.1676,0.1685,0.1692,0.1716,0.1723,0.1773,0.1809,0.1759,0.176,0.1865,0.1868,0.187,0.1915,0,0,0,0,0,0,0.1509,0.1517,0.1538,0.1554,0.1563,0.161,0.1615,0.1623,0.1667,0.1672,0.1711,0.1717,0.1718,0.1771,0.1775,0.181,0.1762,0.1863,0.1866,0.1869,0.1912,0.1919,0.1926,0,0,0,0,0,0.1505,0.1524,0.1539,0.1547,0.1587,0.1611,0.1618,0.1649,0.1668,0.169,0.1721,0.1718,0.1795,0.1773,0.1779,0.1815,0.1861,0.1865,0.1869,0.1909,0.1918,0.1926,0,0,0,0,0,0,0.1502,0.1531,0.1548,0.1576,0.1604,0.1621,0.1649,0.1668,0.1709,0.1727,0.1736,0.1744,0.1802,0.1804,0.178,0.1859,0.1829,0.1835,0.1858,0.1866,0.1873,0.1872,0.1764,0,0,0,0,0,0.151,0.1535,0.1561,0.1588,0.1605,0.1634,0.1655,0.1678,0.1707,0.1728,0.1755,0.1787,0.1816,0.1839,0.1861,0.1902,0.1907,0.1931,0.1938,0.1944,0.1949,0.1985,0.1995,0.1884,0.1884,0.1884,0,0,0.1516,0.1537,0.1552,0.159,0.1616,0.1643,0.165,0.1693,0.1724,0.1729,0.179,0.1814,0.1833,0.188,0.1907,0.1891,0.1981,0.1949,0.1954,0.1955,0.199,0.2,0.201,0.1887,0.1886,0.1886,0,0,0.1526,0.1562,0.1583,0.1609,0.1656,0.1673,0.1694,0.1733,0.1765,0.1816,0.1832,0.1879,0.1923,0.1943,0.1956,0.2017,0.2017,0.2033,0.2068,0.2104,0.2113,0.2121,0.2148,0.2158,0.2036,0.2036,0.2036,0,0.1536,0.1565,0.1594,0.1621,0.1648,0.1691,0.1719,0.1753,0.1806,0.1838,0.1847,0.193,0.195,0.2002,0.2028,0.2033,0.2051,0.2031,0.2112,0.212,0.2127,0.2153,0.2164,0.2039,0.2039,0.2038,0.2038,0,0.1552,0.1589,0.1607,0.1654,0.1686,0.1723,0.1766,0.1815,0.186,0.1892,0.1968,0.1996,0.2046,0.2063,0.2066,0.2133,0.213,0.2115,0.2086,0.2141,0.2165,0.2176,0.2043,0.2042,0.2041,0.204,0,0,0.1532,0.1604,0.1614,0.1643,0.1711,0.1733,0.1797,0.1858,0.1908,0.1968,0.2028,0.2086,0.2115,0.2133,0.2148,0.218,0.2253,0.2178,0.2179,0.2198,0.2336,0.2208,0.2206,0.2256,0.2258,0.2259,0.2334,0,0.154,0.1588,0.1627,0.1682,0.171,0.1773,0.1823,0.1889,0.1952,0.2023,0.2072,0.2137,0.2137,0.2175,0.221,0.2247,0.2281,0.2234,0.2287,0.2288,0.2161,0.2214,0.2266,0.2342,0.2344,0.2346,0.2347,0,0.1536,0.1572,0.1623,0.1698,0.1718,0.1763,0.1858,0.1913,0.2016,0.207,0.2146,0.2187,0.2265,0.2248,0.2337,0.2311,0.2333,0.2349,0.2351,0.222,0.2178,0.2275,0.2365,0.2363,0.2362,0.2361,0.236,0,0.149,0.1568,0.161,0.1636,0.1726,0.1773,0.1833,0.1934,0.1991,0.2114,0.2171,0.2256,0.2317,0.2359,0.2408,0.2385,0.2491,0.2456,0.2358,0.2349,0.2421,0.2412,0.2511,0.2511,0.251,0.251,0.251,0,0.1464,0.1502,0.1599,0.162,0.1682,0.1758,0.1841,0.1916,0.2028,0.2095,0.2199,0.2256,0.2351,0.2418,0.244,0.2436,0.2522,0.2372,0.2361,0.244,0.2432,0.2429,0.2418,0.2513,0.2512,0.2512,0.2511,0,0.14,0.1465,0.1519,0.1623,0.1661,0.1709,0.1838,0.189,0.2015,0.2108,0.2152,0.2286,0.2375,0.2449,0.2529,0.2465,0.2479,0.2455,0.2554,0.2546,0.2303,0.2295,0.2336,0.2332,0.2329,0.2326,0.2324,0,0.1368,0.139,0.1506,0.1541,0.1595,0.1684,0.1738,0.1871,0.1923,0.2104,0.2128,0.227,0.2344,0.2357,0.2445,0.2476,0.2448,0.243,0.2341,0.2301,0.2287,0.2283,0.2279,0.2319,0.2318,0.2317,0.2316,0,0.1302,0.1358,0.1401,0.1476,0.154,0.1603,0.1694,0.1714,0.1863,0.1994,0.2059,0.2114,0.2213,0.2274,0.2325,0.2338,0.2423,0.2395,0.24,0.2316,0.228,0.2269,0.2269,0.2305,0.2306,0.2307,0.2308,0,0.1258,0.1271,0.1339,0.1392,0.1465,0.1492,0.1555,0.1616,0.1685,0.1869,0.1892,0.2053,0.2189,0.2205,0.2252,0.226,0.2215,0.2122,0.214,0.2154,0.206,0.1986,0.1917,0,0,0,0,0,0.1203,0.1208,0.1249,0.1294,0.136,0.1409,0.1506,0.1571,0.1708,0.1704,0.1791,0.1876,0.1954,0.204,0.2012,0.2173,0.2223,0.213,0.2124,0.2241,0.2254,0.2161,0,0,0,0,0,0,0.1166,0.1201,0.1212,0.1198,0.1214,0.1275,0.1334,0.1429,0.1433,0.1585,0.164,0.1763,0.1871,0.1958,0.198,0.2004,0.1961,0.2233,0.2228,0.2234,0.2246,0.2256,0.2165,0,0,0,0,0]},{"header":{"parameterUnit":"m.s-1","parameterCategory":2,"la1":30.2991,"la2":30.254,"lo1":-89.0895,"lo2":-89.0444,"dy":0.0017,"dx":0.0017,"nx":28,"ny":28,"refTime":"2024-03-02T09:00:00:Z","depth":"4","parameterNumber":3,"parameterNumberName":"V-component_of_CURRENTS"},"data":[0,0,0,0,0,0,0,0,0,0,0,0,0,0,0,0,0,0,0,0,0,0,0,0,0,0,0,0,0,0,0,0,0,0,0,0,0,0,0,0,0,0,0,0,0,0,0,0,0,0,0,0,0,0,0,0,0,0,0.0053,0.0053,0,0.0011,0.001,0.001,-0.0017,-0.0017,-0.0017,-0.0018,-0.0084,-0.0086,-0.0087,0,0,0,0,0,0,0,0,0,0,0,0,0,0.0079,0.0079,0.0053,0.0053,0.0052,0.0011,0.001,0.0009,-0.0017,-0.0017,-0.0017,-0.0018,-0.0083,-0.0085,-0.0087,0,0,0,0,0,0,0,0,0,0,0,0,0,0.0055,0.0079,0.0053,0.0035,0.0033,0.0011,0.001,0.0009,-0.0017,-0.0017,-0.0018,-0.0018,-0.0083,-0.0085,-0.0088,-0.0101,0,0,-0.0095,-0.0096,0,0,0,0,0,0,0,0,0.0056,0.0054,0.0038,0.0036,0.0034,0.0003,-0.0005,-0.0028,-0.0017,0.0001,-0.0018,-0.0018,-0.0057,-0.0061,-0.007,-0.0104,-0.0107,-0.0096,-0.0097,-0.0098,-0.0099,0,0,0,0,0,0,0,0.0058,0.0055,0.0036,0.0037,0.0035,0.0017,0.0014,-0.001,-0.0028,-0.0001,-0.0003,-0.0006,-0.0058,-0.0067,-0.0072,-0.0108,-0.0096,-0.0098,-0.0099,-0.01,-0.0151,-0.0151,0,0,0,0,0,0,0.0067,0.0057,0.0037,0.0034,0.0046,0.0017,0.0013,0.0012,-0.0027,-0.0033,-0.0006,-0.0007,-0.0063,-0.0069,-0.0074,-0.0078,-0.0098,-0.0101,-0.0102,-0.0151,-0.0151,-0.0151,0,0,0,0,0,0,0.0067,0.0065,0.0039,0.0045,0.0041,0.0017,0.0016,0.0011,0.0004,-0.0031,-0.0037,-0.0009,-0.0063,-0.007,-0.0091,-0.0081,-0.0102,-0.0104,-0.0152,-0.0151,-0.0151,-0.0094,0,0,0,0,0,0,0.0068,0.0066,0.0068,0.0046,0.0041,0.0031,0.0016,0.0011,0.0002,-0.0,-0.0035,-0.0041,-0.0064,-0.0087,-0.0093,-0.0085,-0.0106,-0.0152,-0.0151,-0.0151,-0.0096,-0.0092,-0.0088,0,0,0,0,0,0.0069,0.0074,0.0069,0.0066,0.0045,0.0032,0.0027,0.0009,0.0002,0.0001,-0.0022,-0.004,-0.0089,-0.0089,-0.0096,-0.0088,-0.0152,-0.0152,-0.0151,-0.0098,-0.0093,-0.0088,0,0,0,0,0,0,0.0084,0.0071,0.0065,0.0064,0.0052,0.0027,0.0025,0.0013,-0.0006,-0.0007,-0.004,-0.0048,-0.0062,-0.0085,-0.0083,-0.0103,-0.0123,-0.0124,-0.008,-0.0075,-0.0071,-0.0055,-0.0108,0,0,0,0,0,0.009,0.0092,0.0074,0.0074,0.007,0.0049,0.0041,0.0031,0.0011,0.0003,-0.0022,-0.0047,-0.0067,-0.0078,-0.0102,-0.0113,-0.0138,-0.0113,-0.0109,-0.0105,-0.0098,-0.0127,-0.0124,-0.015,-0.015,-0.015,0,0,0.0096,0.0089,0.009,0.0078,0.0067,0.0069,0.0044,0.0038,0.004,-0.0002,-0.0008,-0.0036,-0.0068,-0.0079,-0.0087,-0.0096,-0.0113,-0.0105,-0.0101,-0.0096,-0.0126,-0.0124,-0.0121,-0.0149,-0.015,-0.015,0,0,0.0113,0.0103,0.0112,0.0106,0.0096,0.0084,0.0085,0.0064,0.0056,0.0044,0.0017,-0.0002,-0.0036,-0.0053,-0.0067,-0.0057,-0.0092,-0.0066,-0.0031,-0.0058,-0.0056,-0.0055,-0.0086,-0.0088,-0.0062,-0.0062,-0.0062,0,0.0121,0.0131,0.0112,0.0121,0.0123,0.0095,0.0108,0.0095,0.0071,0.0068,0.005,0.0007,-0.0022,-0.003,-0.0026,-0.0046,-0.007,-0.0044,-0.0052,-0.0051,-0.0051,-0.0083,-0.0086,-0.0059,-0.0059,-0.006,-0.006,0,0.0144,0.0155,0.0159,0.0165,0.0163,0.0168,0.0152,0.0147,0.0132,0.0118,0.0102,0.0061,0.0038,0.0024,0.0002,-0.0005,-0.0027,-0.0044,-0.0061,-0.0044,-0.008,-0.0084,-0.0055,-0.0056,-0.0057,-0.0057,0,0,0.0161,0.0174,0.0178,0.0195,0.0189,0.0193,0.0197,0.0195,0.0206,0.0171,0.0177,0.0137,0.0112,0.0095,0.0062,0.0038,0.0016,0.0004,0.0001,-0.0021,-0.0049,-0.0061,-0.0066,-0.0003,-0.0003,-0.0003,-0.0076,0,0.0188,0.022,0.0217,0.0251,0.0268,0.0253,0.0264,0.0258,0.0244,0.024,0.0196,0.0186,0.014,0.0133,0.0101,0.0039,0.001,0.0038,-0.0067,-0.007,-0.0077,-0.007,-0.0004,-0.0079,-0.008,-0.0081,-0.0081,0,0.0214,0.0235,0.0273,0.0307,0.0313,0.0328,0.0346,0.0355,0.0339,0.0327,0.0303,0.0264,0.0225,0.0184,0.0087,0.0106,0.0036,-0.0017,-0.0021,-0.0053,-0.0088,-0.01,-0.0088,-0.0088,-0.0087,-0.0087,-0.0086,0,0.0241,0.0277,0.0313,0.0322,0.0349,0.0367,0.0382,0.0382,0.0402,0.0386,0.0389,0.033,0.0304,0.0213,0.0096,0.0092,-0.0016,-0.0038,-0.0116,-0.0119,-0.0112,-0.0113,-0.0106,-0.0106,-0.0106,-0.0106,-0.0105,0,0.0271,0.0302,0.0331,0.0352,0.0405,0.0409,0.0459,0.0462,0.0475,0.0502,0.044,0.0434,0.031,0.0229,0.0118,-0.001,-0.0004,-0.0107,-0.0135,-0.0087,-0.0084,-0.0115,-0.0115,-0.0108,-0.0108,-0.0107,-0.0107,0,0.0293,0.031,0.0358,0.0399,0.042,0.0458,0.0516,0.055,0.0553,0.0583,0.0581,0.0514,0.0407,0.0272,0.0121,0.0025,-0.0099,-0.0149,-0.0086,-0.011,-0.019,-0.0187,-0.0238,-0.0239,-0.024,-0.024,-0.0241,0,0.0307,0.0333,0.0396,0.043,0.0452,0.0511,0.0555,0.0587,0.0621,0.0627,0.064,0.0556,0.0489,0.0275,0.0122,-0.0087,-0.0122,-0.019,-0.0191,-0.018,-0.0202,-0.0197,-0.0193,-0.0242,-0.0242,-0.0243,-0.0243,0,0.0332,0.0352,0.0391,0.0464,0.0519,0.0586,0.0646,0.0677,0.071,0.0716,0.0693,0.0581,0.0458,0.0283,0.0119,-0.0034,-0.0145,-0.0199,-0.0199,-0.02,-0.0186,-0.0206,-0.0201,-0.0246,-0.0245,-0.0245,-0.0245,0,0.0348,0.0377,0.0426,0.0491,0.0565,0.0631,0.0666,0.0704,0.0741,0.0745,0.0735,0.0603,0.0534,0.0309,0.0157,0.0008,-0.0036,-0.0089,-0.0095,-0.0094,-0.0036,0.0004,-0.0016,0,0,0,0,0,0.036,0.039,0.0449,0.0519,0.0594,0.0637,0.0713,0.0739,0.0771,0.0766,0.0755,0.0642,0.0425,0.0331,0.018,0.012,-0.0078,-0.0064,-0.0146,-0.0261,-0.0258,-0.0216,0,0,0,0,0,0,0.0364,0.0416,0.0444,0.053,0.058,0.0666,0.0714,0.0738,0.0735,0.0744,0.0636,0.0594,0.0384,0.0513,0.0174,0.0128,0.0053,-0.016,-0.0164,-0.0263,-0.026,-0.0258,-0.0213,0,0,0,0,0]}]]